| time (UTC) | temp F | wind direction | speed knots | gust knots | rain 1hr in | rain 24hr in | rain mn in | humidity % | barometer mb |
| 20260504021528 | 57 | 162 | 5.2 | 10.4 | 0.00 | 0.02 | 0.00 | 69 | 1013.1 |
| 20260504020028 | 56 | 138 | 3.5 | 7.8 | 0.00 | 0.02 | 0.00 | 72 | 1013.1 |
| 20260504014527 | 55 | 116 | 3.5 | 8.7 | 0.00 | 0.02 | 0.00 | 75 | 1013.0 |
| 20260504013025 | 55 | 117 | 1.7 | 3.5 | 0.00 | 0.02 | 0.00 | 79 | 1013.1 |
| 20260504011524 | 55 | 148 | 0.9 | 3.5 | 0.00 | 0.02 | 0.00 | 75 | 1013.0 |
| 20260504010028 | 55 | 135 | 1.7 | 2.6 | 0.00 | 0.02 | 0.00 | 73 | 1013.0 |
| 20260504004537 | 55 | 117 | 1.7 | 2.6 | 0.00 | 0.02 | 0.00 | 73 | 1013.1 |
| 20260504003019 | 55 | 129 | 0.9 | 3.5 | 0.00 | 0.02 | 0.00 | 72 | 1013.3 |
| 20260504001518 | 55 | 114 | 1.7 | 4.3 | 0.00 | 0.02 | 0.00 | 72 | 1013.4 |
| 20260504000017 | 55 | 130 | 2.6 | 4.3 | 0.00 | 0.02 | 0.00 | 71 | 1013.5 |
| 20260503234514 | 56 | 110 | 1.7 | 4.3 | 0.00 | 0.02 | 0.00 | 70 | 1013.6 |
| 20260503233011 | 56 | 140 | 2.6 | 7.0 | 0.00 | 0.02 | 0.00 | 69 | 1013.7 |
| 20260503231509 | 57 | 134 | 2.6 | 6.1 | 0.00 | 0.02 | 0.00 | 67 | 1013.6 |
| 20260503230008 | 57 | 117 | 2.6 | 7.0 | 0.00 | 0.02 | 0.00 | 66 | 1013.7 |
| 20260503224506 | 57 | 149 | 4.3 | 7.0 | 0.00 | 0.02 | 0.00 | 66 | 1013.8 |
| 20260503223005 | 57 | 155 | 4.3 | 7.8 | 0.00 | 0.02 | 0.00 | 67 | 1013.8 |
| 20260503221502 | 57 | 128 | 3.5 | 7.8 | 0.00 | 0.02 | 0.00 | 67 | 1013.8 |
| 20260503220002 | 57 | 123 | 2.6 | 7.0 | 0.00 | 0.02 | 0.02 | 67 | 1013.8 |
| 20260503214609 | 57 | 134 | 3.5 | 8.7 | 0.00 | 0.02 | 0.02 | 67 | 1013.8 |
| 20260503213103 | 57 | 149 | 3.5 | 7.0 | 0.00 | 0.02 | 0.02 | 67 | 1013.7 |
| 20260503211605 | 58 | 136 | 3.5 | 8.7 | 0.00 | 0.02 | 0.02 | 67 | 1013.6 |
| 20260503210100 | 58 | 116 | 4.3 | 9.6 | 0.00 | 0.02 | 0.02 | 67 | 1013.6 |
| 20260503204559 | 58 | 153 | 3.5 | 8.7 | 0.00 | 0.02 | 0.02 | 67 | 1013.7 |
| 20260503203057 | 58 | 128 | 3.5 | 7.8 | 0.00 | 0.02 | 0.02 | 66 | 1013.6 |
| 20260503201556 | 58 | 155 | 3.5 | 7.8 | 0.00 | 0.02 | 0.02 | 66 | 1013.5 |
| 20260503200055 | 58 | 143 | 3.5 | 6.1 | 0.00 | 0.02 | 0.02 | 66 | 1013.5 |
| 20260503194555 | 59 | 138 | 2.6 | 8.7 | 0.00 | 0.02 | 0.02 | 65 | 1013.3 |
| 20260503193058 | 59 | 138 | 3.5 | 8.7 | 0.00 | 0.02 | 0.02 | 65 | 1013.1 |
| 20260503191554 | 59 | 135 | 3.5 | 7.8 | 0.00 | 0.02 | 0.02 | 64 | 1013.1 |
| 20260503190057 | 59 | 163 | 3.5 | 8.7 | 0.00 | 0.02 | 0.02 | 64 | 1013.0 |
| 20260503184605 | 60 | 149 | 1.7 | 6.1 | 0.00 | 0.02 | 0.02 | 63 | 1012.9 |
| 20260503183053 | 61 | 163 | 2.6 | 7.8 | 0.00 | 0.02 | 0.02 | 62 | 1012.9 |
| 20260503181552 | 62 | 114 | 3.5 | 7.8 | 0.00 | 0.02 | 0.02 | 61 | 1012.8 |
| 20260503180052 | 63 | 190 | 4.3 | 10.4 | 0.00 | 0.02 | 0.02 | 60 | 1012.8 |
| 20260503174606 | 63 | 140 | 6.1 | 13.0 | 0.00 | 0.02 | 0.02 | 59 | 1012.8 |
| 20260503173050 | 63 | 161 | 2.6 | 8.7 | 0.00 | 0.02 | 0.02 | 59 | 1012.9 |
| 20260503171548 | 63 | 142 | 2.6 | 9.6 | 0.00 | 0.02 | 0.02 | 58 | 1013.1 |
| 20260503081518 | 59 | 213 | 5.2 | 14.8 | 0.00 | 0.00 | 0.00 | 61 | 1015.1 |
| 20260503071505 | 58 | 152 | 6.1 | 11.3 | 0.00 | 0.00 | 0.00 | 61 | 1014.8 |
| 20260503054555 | 57 | 177 | 3.5 | 7.8 | 0.00 | 0.00 | 0.00 | 61 | 1014.7 |
| 20260503053056 | 57 | 200 | 4.3 | 8.7 | 0.00 | 0.00 | 0.00 | 61 | 1014.7 |
| 20260503051553 | 57 | 164 | 4.3 | 9.6 | 0.00 | 0.00 | 0.00 | 61 | 1014.6 |
| 20260503050051 | 57 | 162 | 2.6 | 7.0 | 0.00 | 0.00 | 0.00 | 62 | 1014.7 |
| 20260503044553 | 57 | 163 | 2.6 | 7.0 | 0.00 | 0.00 | 0.00 | 62 | 1014.7 |
| 20260503043048 | 57 | 172 | 4.3 | 7.8 | 0.00 | 0.00 | 0.00 | 62 | 1014.8 |
| 20260503041547 | 57 | 157 | 5.2 | 10.4 | 0.00 | 0.00 | 0.00 | 62 | 1014.7 |
| 20260503040047 | 57 | 175 | 5.2 | 9.6 | 0.00 | 0.00 | 0.00 | 62 | 1014.7 |
| 20260503034559 | 57 | 157 | 5.2 | 9.6 | 0.00 | 0.00 | 0.00 | 63 | 1014.8 |
| 20260503033051 | 57 | 167 | 4.3 | 12.2 | 0.00 | 0.00 | 0.00 | 64 | 1014.9 |
| 20260503031544 | 56 | 166 | 5.2 | 9.6 | 0.00 | 0.00 | 0.00 | 65 | 1014.9 |
| 20260503030043 | 56 | 172 | 4.3 | 9.6 | 0.00 | 0.00 | 0.00 | 66 | 1014.9 |
| 20260503024538 | 57 | 200 | 4.3 | 7.8 | 0.00 | 0.00 | 0.00 | 66 | 1014.9 |
| 20260503023036 | 57 | 182 | 4.3 | 10.4 | 0.00 | 0.00 | 0.00 | 61 | 1015.1 |